When you browse on this site, cookies collect data to enhance your experience and personalize the content and advertising you see.
Visit our Privacy Policy to learn more. By continuing to use the site, you agree to this use of cookies and data.
  • En España
  • Lista de países
  • Para 7 días
  • Temperatura del agua
  • El tiempo en el mapa
  • Informadores
  • user-avatar
    Iniciar sesión

    Tiempo cada hora Triest

    Hoy, 13 Noviembre, Miércoles

    Tiempo Temperatura Precipitaciones Viento Presión Humedad
    00:00 +11°C° 0.8 mm 4 mps 745 mmHg 93%
    01:00 +11°C° 0.8 mm 3 mps 745 mmHg 93%
    02:00 +11°C° 1.2 mm 3 mps 745 mmHg 93%
    03:00 +11°C° 1.2 mm 3 mps 744 mmHg 93%
    04:00 +12°C° 1.2 mm 3 mps 744 mmHg 93%
    05:00 +12°C° 1.3 mm 3 mps 744 mmHg 94%
    06:00 +11°C° 1.3 mm 4 mps 743 mmHg 94%
    07:00 +11°C° 1.3 mm 4 mps 743 mmHg 94%
    08:00 +12°C° 1.5 mm 3 mps 743 mmHg 93%
    09:00 +12°C° 1.5 mm 3 mps 743 mmHg 93%
    10:00 +12°C° 1.5 mm 3 mps 743 mmHg 93%
    11:00 +12°C° 1.1 mm 3 mps 743 mmHg 93%
    12:00 +12°C° 1.1 mm 3 mps 744 mmHg 94%
    13:00 +12°C° 1.1 mm 3 mps 744 mmHg 94%
    14:00 +11°C° 0.8 mm 3 mps 745 mmHg 95%
    15:00 +11°C° 0.8 mm 3 mps 745 mmHg 96%
    16:00 +10°C° 0.8 mm 3 mps 746 mmHg 96%
    17:00 +10°C° 0.2 mm 3 mps 747 mmHg 96%
    18:00 +9°C° 0.2 mm 2 mps 747 mmHg 96%
    19:00 +10°C° 0.2 mm 1 mps 748 mmHg 96%
    20:00 +9°C° 0 mm 1 mps 749 mmHg 96%
    21:00 +9°C° 0 mm 1 mps 750 mmHg 95%
    22:00 +9°C° 0 mm 1 mps 751 mmHg 95%
    23:00 +9°C° 0 mm 1 mps 751 mmHg 94%

    Mañana, 14 Noviembre, Jueves

    Tiempo Temperatura Precipitaciones Viento Presión Humedad
    00:00 +8°C° 0 mm 1 mps 752 mmHg 93%
    01:00 +8°C° 0 mm 1 mps 752 mmHg 93%
    02:00 +8°C° 0 mm 1 mps 752 mmHg 92%
    03:00 +8°C° 0 mm 1 mps 752 mmHg 91%
    04:00 +9°C° 0 mm 1 mps 752 mmHg 89%
    05:00 +8°C° 0 mm 1 mps 752 mmHg 89%
    06:00 +7°C° 0 mm 2 mps 753 mmHg 89%
    07:00 +7°C° 0 mm 2 mps 753 mmHg 89%
    08:00 +8°C° 0 mm 2 mps 753 mmHg 88%
    09:00 +9°C° 0 mm 2 mps 753 mmHg 87%
    10:00 +10°C° 0 mm 2 mps 753 mmHg 86%
    11:00 +10°C° 0.1 mm 2 mps 753 mmHg 86%
    12:00 +12°C° 0.1 mm 2 mps 753 mmHg 86%
    13:00 +12°C° 0.1 mm 2 mps 753 mmHg 85%
    14:00 +12°C° 0 mm 2 mps 753 mmHg 86%
    15:00 +12°C° 0 mm 2 mps 752 mmHg 88%
    16:00 +12°C° 0 mm 2 mps 752 mmHg 89%
    17:00 +10°C° 0 mm 2 mps 753 mmHg 90%
    18:00 +10°C° 0 mm 2 mps 753 mmHg 91%
    19:00 +9°C° 0 mm 2 mps 753 mmHg 93%
    20:00 +9°C° 0 mm 2 mps 753 mmHg 93%
    21:00 +9°C° 0 mm 2 mps 753 mmHg 93%
    22:00 +9°C° 0 mm 2 mps 753 mmHg 93%
    23:00 +10°C° 0.4 mm 3 mps 753 mmHg 93%

    Pasado mañana, 15 Noviembre, Viernes

    Tiempo Temperatura Precipitaciones Viento Presión Humedad
    00:00 +11°C° 0.4 mm 3 mps 752 mmHg 94%
    01:00 +11°C° 0.4 mm 3 mps 752 mmHg 94%
    02:00 +11°C° 0.7 mm 4 mps 752 mmHg 94%
    03:00 +12°C° 0.7 mm 4 mps 751 mmHg 93%
    04:00 +12°C° 0.7 mm 5 mps 751 mmHg 93%
    05:00 +12°C° 0.7 mm 4 mps 751 mmHg 93%
    06:00 +12°C° 0.7 mm 4 mps 751 mmHg 93%
    07:00 +12°C° 0.7 mm 4 mps 751 mmHg 94%
    08:00 +13°C° 0.5 mm 4 mps 751 mmHg 92%
    09:00 +14°C° 0.5 mm 5 mps 751 mmHg 90%
    10:00 +14°C° 0.5 mm 5 mps 751 mmHg 88%
    11:00 +15°C° 0.3 mm 6 mps 751 mmHg 86%
    12:00 +15°C° 0.3 mm 6 mps 751 mmHg 84%
    13:00 +15°C° 0.3 mm 6 mps 750 mmHg 82%
    14:00 +15°C° 0 mm 6 mps 750 mmHg 83%
    15:00 +14°C° 0 mm 6 mps 750 mmHg 83%
    16:00 +14°C° 0 mm 6 mps 749 mmHg 84%
    17:00 +14°C° 0.2 mm 6 mps 750 mmHg 84%
    18:00 +14°C° 0.2 mm 6 mps 750 mmHg 84%
    19:00 +14°C° 0.2 mm 7 mps 750 mmHg 83%
    20:00 +13°C° 3.8 mm 6 mps 751 mmHg 87%
    21:00 +12°C° 3.8 mm 5 mps 751 mmHg 91%
    22:00 +12°C° 3.8 mm 5 mps 752 mmHg 95%
    23:00 +11°C° 1.4 mm 4 mps 753 mmHg 95%

    16 Noviembre, Sábado

    Tiempo Temperatura Precipitaciones Viento Presión Humedad
    00:00 +11°C° 1.4 mm 3 mps 753 mmHg 95%
    01:00 +12°C° 1.4 mm 2 mps 754 mmHg 95%
    02:00 +12°C° 0.3 mm 1 mps 754 mmHg 95%
    03:00 +12°C° 0.3 mm 1 mps 755 mmHg 95%
    04:00 +12°C° 0.3 mm 1 mps 755 mmHg 95%
    05:00 +12°C° 0.3 mm 1 mps 756 mmHg 94%
    06:00 +11°C° 0.3 mm 1 mps 756 mmHg 93%
    07:00 +10°C° 0.3 mm 2 mps 756 mmHg 92%
    08:00 +12°C° 0.1 mm 1 mps 757 mmHg 90%
    09:00 +12°C° 0.1 mm 1 mps 757 mmHg 87%
    10:00 +13°C° 0.1 mm 1 mps 758 mmHg 85%
    11:00 +13°C° 0.1 mm 1 mps 757 mmHg 84%
    12:00 +13°C° 0.1 mm 1 mps 757 mmHg 83%
    13:00 +13°C° 0.1 mm 1 mps 757 mmHg 83%
    14:00 +12°C° 0.2 mm 1 mps 757 mmHg 85%
    15:00 +12°C° 0.2 mm 2 mps 757 mmHg 86%
    16:00 +10°C° 0.2 mm 2 mps 756 mmHg 88%
    17:00 +10°C° 0.7 mm 2 mps 756 mmHg 89%
    18:00 +10°C° 0.7 mm 2 mps 756 mmHg 91%
    19:00 +10°C° 0.7 mm 3 mps 756 mmHg 92%
    20:00 +11°C° 1.3 mm 3 mps 755 mmHg 92%
    21:00 +11°C° 1.3 mm 3 mps 755 mmHg 93%
    22:00 +11°C° 1.3 mm 3 mps 755 mmHg 93%
    23:00 +11°C° 0.3 mm 3 mps 754 mmHg 93%

    17 Noviembre, Domingo

    Tiempo Temperatura Precipitaciones Viento Presión Humedad
    00:00 +11°C° 0.3 mm 3 mps 753 mmHg 92%
    01:00 +11°C° 0.3 mm 3 mps 753 mmHg 91%
    02:00 +11°C° 0.4 mm 4 mps 752 mmHg 92%
    03:00 +11°C° 0.4 mm 4 mps 752 mmHg 92%
    04:00 +12°C° 0.4 mm 4 mps 752 mmHg 92%
    05:00 +12°C° 0.2 mm 4 mps 751 mmHg 92%
    06:00 +12°C° 0.2 mm 4 mps 751 mmHg 92%
    07:00 +12°C° 0.2 mm 4 mps 751 mmHg 92%
    08:00 +12°C° 0.1 mm 4 mps 751 mmHg 90%
    09:00 +13°C° 0.1 mm 5 mps 750 mmHg 88%
    10:00 +13°C° 0.1 mm 5 mps 750 mmHg 86%
    11:00 +14°C° 0.3 mm 6 mps 750 mmHg 84%
    12:00 +14°C° 0.3 mm 6 mps 749 mmHg 83%
    13:00 +15°C° 0.3 mm 7 mps 748 mmHg 81%
    14:00 +14°C° 2.4 mm 6 mps 748 mmHg 84%
    15:00 +13°C° 2.4 mm 5 mps 748 mmHg 87%
    16:00 +13°C° 2.4 mm 5 mps 747 mmHg 91%
    17:00 +13°C° 0.2 mm 5 mps 748 mmHg 90%
    18:00 +12°C° 0.2 mm 5 mps 748 mmHg 90%
    19:00 +11°C° 0.2 mm 6 mps 748 mmHg 90%
    20:00 +11°C° 0.2 mm 6 mps 748 mmHg 89%
    21:00 +11°C° 0.2 mm 6 mps 749 mmHg 89%
    22:00 +11°C° 0.2 mm 6 mps 749 mmHg 88%
    23:00 +11°C° 0.8 mm 6 mps 749 mmHg 90%

    18 Noviembre, Lunes

    Tiempo Temperatura Precipitaciones Viento Presión Humedad
    00:00 +12°C° 0.8 mm 5 mps 749 mmHg 91%
    01:00 +12°C° 0.8 mm 5 mps 750 mmHg 92%
    02:00 +12°C° 2.2 mm 5 mps 750 mmHg 93%
    03:00 +12°C° 2.2 mm 5 mps 751 mmHg 94%
    04:00 +12°C° 2.2 mm 4 mps 751 mmHg 95%
    05:00 +12°C° 1.4 mm 4 mps 752 mmHg 94%
    06:00 +12°C° 1.4 mm 4 mps 752 mmHg 94%
    07:00 +12°C° 1.4 mm 4 mps 753 mmHg 93%
    08:00 +12°C° 0.6 mm 4 mps 753 mmHg 91%
    09:00 +12°C° 0.6 mm 4 mps 754 mmHg 89%
    10:00 +13°C° 0.6 mm 4 mps 754 mmHg 86%
    11:00 +13°C° 0.3 mm 4 mps 755 mmHg 84%
    12:00 +14°C° 0.3 mm 4 mps 755 mmHg 83%
    13:00 +14°C° 0.3 mm 4 mps 755 mmHg 81%
    14:00 +13°C° 0.2 mm 3 mps 755 mmHg 83%
    15:00 +14°C° 0.2 mm 2 mps 755 mmHg 86%
    16:00 +13°C° 0.2 mm 1 mps 755 mmHg 89%
    17:00 +13°C° 0 mm 2 mps 756 mmHg 90%
    18:00 +12°C° 0 mm 2 mps 756 mmHg 90%
    19:00 +10°C° 0 mm 2 mps 756 mmHg 91%
    20:00 +12°C° 0.1 mm 2 mps 756 mmHg 91%
    21:00 +12°C° 0.1 mm 2 mps 756 mmHg 91%
    22:00 +13°C° 0.1 mm 2 mps 757 mmHg 91%
    23:00 +12°C° 0.2 mm 2 mps 756 mmHg 92%
    Mostrar más